User: anonymous   Login
Location: Unspecified
(0.0000°N, 0.0000°E)
Time: 07:37:13
(UTC+01:00)
Language:

Hubble Space Telescope - Orbit

View from above orbital plane
View from above orbital plane
View from above satellite
View from above satellite

Ground track
Ground track

The orbit data is extracted from the following two-line orbital elements,

1 20580U 90037B   17324.58358031 +.00000725 +00000-0 +33645-4 0  9993
2 20580 028.4704 053.9757 0002953 057.6053 036.4150 15.08923844313845
Epoch (UTC): 20 November 2017 14:00:21
Eccentricity: 0.0002953
inclination: 28.4704°
perigee height: 537 km
apogee height: 541 km
right ascension of ascending node: 53.9757°
argument of perigee: 57.6053°
revolutions per day: 15.08923844
mean anomaly at epoch: 36.4150°
orbit number at epoch: 31384

The dashed part of the orbit path shows where the satellite is in the earth's shadow,  

DLR